SCP
-0 -0 -0 -0 -0 -0 -0 -0 -0 -0 -0 -0 -0 -0 -0 -0 -0 -0 -0 -0 -0 -0 -0 -0 -0 -0 -0 -0 -0 -0 -0 -0 -0 -0 0 0 -0 0 0 0 0 0 0
0 -0 -0 -0 -0 -0 -0 -0 -0 -0 -0 -0 -0 -0 -0 -0 -0 -0 -0 -0 -0 -0 -0 -0 -0 -0 -0 -0 -0 -0 -0 -0 0 0 0 0 0 0 0 -0 -0 0 0
-0 0 0 -0 -0 -0 -0 -0 -0 -0 -0 -0 -0 -0 -0 -0 -0 -0 0 0 0 0 -0 -0 -0 -0 -0 -0 -0 -0 -0 0 0 -0 -0 -0 -0 -0 -0 -0 0 -0 -0
0 -0 -0 -0 -0 -0 -0 -0 -0 -0 -0 -0 -0 -0 -0 -0 -0 -0 0 0 0 0 0 -0 -0 -0 -0 -0 -0 -0 -0 -0 -0 -0 -0 -0 -0 -0 0 0 0 -0 -0
0 -0 -0 0 0 -0 -0 -0 -0 -0 -0 -0 -0 -0 -0 0 0 0 0 0 0 0 0 0 0 0 0 -0 -0 -0 -0 -0 -0 -0 -0 -0 -0 0 0 0 0 0 -0
0 -0 -0 -0 -0 -0 -0 -0 -0 -0 -0 -0 -0 -0 -0 0 0 -0 -0 -0 0 0 0 0 0 0 -0 -0 -0 -0 -0 -0 -0 -0 -0 -0 -0 -0 0 0 0 0 0
0 0 0 -0 0 -0 -0 -0 0 0 0 0 0 0 0 0 0 0 -0 -0 0 0 0 0 -0 -0 -0 -0 -0 -0 -0 -0 -0 -0 -0 -0 0 0 0 0 0 0 0
0 0 -0 0 0 0 -0 -0 -0 -0 0 0 0 0 0 0 0 0 -0 0 0 0 0 -0 -0 -0 -0 -0 0 0 -0 -0 -0 -0 -0 -0 0 0 0 0 0 0 0
0 0 0 0 0 0 0 -0 -0 0 0 0 0 0 0 -0 -0 -0 0 0 0 0 -0 -0 -0 -0 -0 -0 0 0 0 0 0 -0 0 0 0 0 0 0 0 0 0
1 0 0 0 0 0 0 0 0 0 0 -0 0 0 0 0 -0 -0 -0 0 -0 -0 -0 -0 -0 -0 -0 0 0 0 0 0 0 0 0 0 0 0 0 0 0 0 0
0 0 1 1 0 0 0 0 0 0 -0 -0 -0 -0 -0 -0 -0 -0 -0 -0 0 0 0 0 0 0 0 0 0 0 0 0 0 0 0 0 0 0 0 0 0 0 0
1 0 1 0 0 0 0 0 0 0 0 -0 -0 -0 -0 -0 -0 -0 -0 0 0 0 0 0 0 0 0 0 0 0 0 0 0 0 0 0 0 0 0 0 0 0 0
1 1 1 1 1 0 0 0 0 0 0 0 0 0 0 0 0 0 0 0 0 0 0 0 0 0 0 0 0 0 0 0 0 0 0 0 0 0 0 0 0 0 0
0 1 1 1 1 0 0 0 0 0 0 0 0 0 0 0 0 0 0 0 0 0 0 0 0 0 0 0 0 0 0 0 0 0 0 0 0 0 0 0 0 0 0
0 0 1 1 1 1 0 0 0 0 0 0 0 0 0 0 0 0 0 0 0 0 0 0 0 0 0 0 0 0 0 0 0 0 0 0 0 0 0 0 0 0 0
1 0 0 1 1 0 0 0 0 0 0 0 0 0 0 0 0 0 0 0 0 0 0 0 0 0 0 0 0 0 0 0 0 0 0 0 0 0 0 0 0 0 0
0 0 0 1 0 0 0 0 0 0 0 0 0 0 0 0 0 0 0 0 0 0 0 0 0 0 0 0 0 0 0 0 0 0 0 0 0 0 0 0 0 0 0
0 0 0 0 0 0 0 0 0 0 0 0 0 0 0 0 0 0 0 0 0 0 0 0 0 0 0 0 0 0 0 0 0 0 0 0 0 0 0 0 0 0 0
0 0 0 0 0 0 0 0 0 0 0 0 0 0 0 0 0 0 0 0 0 0 0 0 0 0 0 0 0 0 0 0 0 0 0 0 0 0 0 0 0 0 0
0 0 1 0 0 0 0 0 0 0 0 0 0 0 0 0 0 0 0 0 0 0 0 0 0 0 0 0 0 0 0 0 0 0 0 0 0 0 0 0 0 0 0
0 0 0 0 0 0 0 0 0 0 0 0 0 0 0 0 0 0 0 0 0 0 0 0 0 0 0 0 0 0 0 0 0 0 0 0 0 0 0 0 0 0 0
0 0 0 0 0 0 0 0 0 0 0 0 0 0 0 0 0 0 0 0 0 0 0 0 0 0 0 0 0 0 0 0 0 0 0 0 0 0 0 0 0 0 0
0 0 0 0 0 0 0 0 0 0 0 0 0 0 0 0 0 0 0 0 0 0 0 0 0 0 0 0 0 0 0 0 0 0 0 0 0 0 0 0 0 0 0
0 0 0 0 0 0 0 0 0 1 0 0 0 0 0 0 0 0 0 0 0 0 0 0 0 0 0 0 0 0 0 0 0 0 0 0 0 0 0 0 0 0 0
0 0 0 0 0 0 0 0 0 0 0 0 0 0 0 0 0 0 0 0 0 0 0 0 0 0 0 0 0 0 0 0 0 0 0 0 0 0 0 0 0 0 0
0 0 0 0 0 0 0 0 0 0 0 0 0 0 0 0 0 0 0 0 0 0 0 0 0 0 0 0 0 0 0 0 0 0 0 0 0 0 0 0 0 0 0
Wind_Speed_500mb
62 58 52 48 45 41 36 32 27 23 19 14 11 12 15 19 21 21 24 25 23 18 15 13 12 10 8 10 13 15 17 22 25 26 26 26 22 19 18 23 26 27 26
68 63 56 50 46 42 36 30 25 22 18 12 12 14 17 23 27 30 29 27 25 21 17 13 11 11 13 16 18 21 25 27 30 31 29 27 24 24 24 25 26 26 27
68 65 58 53 47 43 37 31 26 22 17 13 13 17 21 24 29 34 33 30 25 22 20 18 17 18 20 23 27 30 30 32 33 34 34 34 31 31 32 32 30 24 27
65 66 59 54 49 44 38 32 27 22 18 16 16 18 22 25 28 32 33 31 28 25 24 24 25 27 28 29 30 30 30 30 30 33 36 37 38 30 29 30 32 29 27
66 65 57 53 49 43 38 33 29 23 19 17 17 16 22 24 26 26 27 27 27 28 28 30 31 30 30 29 29 31 30 29 37 38 29 25 23 21 15 16 25 27 26
67 62 54 52 48 43 36 32 29 23 21 19 13 16 19 23 28 21 22 22 24 28 30 30 30 31 30 30 29 28 28 27 26 26 23 17 17 19 16 14 11 19 19
66 62 56 51 47 43 37 32 27 25 20 16 20 24 24 25 28 24 21 19 21 25 27 28 28 29 30 29 27 24 24 23 19 16 14 16 18 19 19 18 15 6 3
64 58 54 50 47 43 37 33 30 26 21 21 25 26 24 24 28 27 23 19 18 20 23 24 25 24 24 24 24 22 21 20 18 16 16 17 19 20 22 22 20 16 12
56 53 53 50 45 43 39 35 32 26 29 26 22 14 16 27 28 29 24 22 18 17 17 18 18 19 18 18 17 17 17 16 17 19 19 21 23 23 23 24 25 22 19
56 53 51 50 49 47 42 38 31 29 20 13 8 5 5 14 31 35 27 25 19 16 14 13 13 13 12 12 12 11 11 12 12 13 16 19 21 23 24 25 26 24 21
55 55 54 53 50 47 44 39 32 27 18 10 9 11 15 16 19 26 29 25 21 15 10 7 5 3 2 1 1 4 5 6 8 8 11 15 19 21 24 25 25 25 23
54 56 54 55 52 48 46 41 36 29 21 15 14 16 18 18 20 24 27 22 21 18 16 11 7 4 3 5 5 5 3 2 4 8 8 11 17 19 22 25 25 24 23
46 51 53 53 52 49 46 42 38 31 24 19 20 18 19 19 20 22 26 24 21 20 14 12 9 8 8 9 11 12 10 8 7 9 10 11 14 18 21 24 27 27 25
44 47 50 53 52 49 43 40 37 31 25 20 22 18 16 16 17 17 17 12 14 14 15 13 14 13 13 13 14 15 15 14 12 12 13 16 16 18 21 23 25 27 26
42 46 51 51 53 50 46 40 37 32 24 21 19 20 18 16 16 18 18 17 15 15 14 12 13 15 16 16 17 17 17 16 16 16 16 19 18 19 21 25 26 27 27
39 42 43 53 54 52 49 43 38 30 27 24 20 18 20 20 17 17 19 17 15 13 15 16 16 15 16 17 18 18 17 17 19 19 20 20 20 20 22 25 28 28 28
41 38 38 44 50 53 49 44 38 27 26 25 19 19 19 21 19 16 21 19 15 13 17 15 15 14 13 14 13 15 17 19 21 21 22 22 22 21 22 23 27 29 28
36 41 34 36 42 51 50 45 39 32 27 25 21 20 20 20 19 18 18 18 19 16 16 15 14 13 12 13 13 14 17 20 22 23 25 25 24 24 24 24 25 27 30
37 35 36 36 30 38 46 45 40 34 32 27 25 24 22 20 20 20 19 17 20 22 19 18 18 18 17 17 19 19 21 23 25 27 28 29 29 29 29 29 29 28 29
34 36 35 34 34 35 37 40 42 42 40 36 32 27 25 24 23 23 22 23 24 26 26 24 21 22 24 24 27 30 30 30 31 32 32 33 34 34 33 33 33 34 32
36 40 35 34 36 41 46 47 48 49 44 43 39 33 30 30 30 29 27 26 28 31 29 28 29 30 31 29 34 38 38 35 37 37 36 33 28 21 25 28 30 35 35
27 24 23 33 37 34 48 45 42 41 45 46 43 41 41 40 39 37 35 34 34 36 35 34 34 34 35 34 37 41 41 44 45 35 34 41 33 38 38 33 27 28 27
28 36 41 39 44 45 47 47 43 44 46 45 47 47 48 44 40 41 41 42 41 41 43 38 40 40 41 41 42 39 23 23 32 37 40 44 40 40 34 28 38 31 27
40 39 47 47 44 44 44 43 43 43 42 40 38 36 37 41 44 45 45 46 45 43 45 42 38 41 45 48 46 49 53 53 42 34 36 33 46 38 36 31 31 30 37
51 49 48 50 49 48 45 43 44 44 42 41 41 41 42 41 41 41 44 47 49 49 47 45 45 45 47 49 47 47 48 49 42 48 42 32 33 33 34 39 37 37 39
46 53 56 55 54 52 52 50 48 47 47 46 45 46 47 49 50 49 47 48 47 48 48 45 45 45 44 43 41 38 36 34 35 32 36 41 37 36 39 36 40 37 32
Wind_Direction_500mb
171 166 170 172 168 166 164 161 159 157 153 146 126 112 92 86 85 99 119 138 161 158 139 127 117 109 93 64 57 60 69 81 92 94 101 107 101 82 58 49 54 59 72
166 166 170 174 173 171 168 166 162 159 153 137 120 107 103 100 90 92 106 112 120 125 125 121 116 102 85 79 76 81 86 90 91 91 94 96 86 69 59 56 55 60 68
168 167 170 175 176 175 173 170 167 161 156 145 132 121 114 106 96 89 98 97 99 101 104 108 103 96 94 92 90 90 92 93 92 91 90 87 77 72 65 60 48 62 67
169 168 170 174 175 176 175 173 170 167 162 154 138 121 122 112 106 97 96 92 88 91 98 101 103 103 101 99 97 95 95 93 95 97 94 86 71 68 61 54 53 68 67
172 169 168 172 173 175 177 177 170 167 153 144 138 126 132 123 114 107 100 91 84 89 100 104 104 103 101 103 100 97 95 98 95 92 92 81 81 74 65 58 58 62 62
172 168 166 171 170 172 175 165 166 163 161 162 164 147 140 136 129 119 114 99 89 90 101 104 104 103 102 104 102 97 97 102 93 91 85 65 34 26 40 57 78 80 78
170 170 168 171 169 173 174 171 166 161 175 165 151 146 139 137 142 133 130 112 97 93 104 108 107 103 101 100 100 99 101 102 98 84 61 43 41 38 41 42 48 79 158
170 170 171 171 172 172 175 176 174 173 157 144 145 145 149 142 146 144 139 130 113 102 103 110 109 106 103 101 101 99 98 95 86 74 67 55 45 40 38 37 35 35 32
174 171 175 173 176 176 178 180 183 176 167 166 158 140 155 151 154 154 146 144 134 120 112 114 121 118 114 110 109 102 89 83 76 70 61 50 41 34 33 31 30 28 23
179 174 177 178 179 180 181 184 186 187 173 188 195 157 187 184 165 162 160 153 155 147 140 130 136 148 144 133 121 110 93 85 77 65 49 38 37 31 28 26 25 23 20
181 181 182 183 184 184 183 183 185 186 184 193 196 192 175 173 168 174 174 164 165 164 153 146 129 125 159 156 93 77 79 80 68 49 33 24 28 29 26 20 19 17 14
187 188 188 187 190 190 187 188 187 187 190 188 191 186 182 176 169 172 181 181 174 181 183 186 191 196 233 242 236 240 259 341 11 9 360 2 8 15 17 16 13 12 10
190 194 192 195 193 196 195 192 192 192 195 192 194 195 192 185 178 182 188 190 189 188 195 206 217 238 259 266 261 262 269 279 297 329 338 338 343 352 359 3 5 3 3
200 200 199 200 197 201 202 201 201 198 196 199 202 202 203 198 196 194 196 200 202 206 212 225 226 235 255 271 270 268 273 280 284 303 319 327 323 330 341 347 353 356 356
208 208 203 206 205 204 206 208 207 206 203 203 206 208 208 202 206 211 214 217 219 222 226 233 237 239 246 261 270 269 272 282 293 297 306 313 316 316 324 332 340 343 347
223 205 211 212 212 210 209 211 212 215 211 213 220 224 220 215 219 218 217 221 229 239 241 245 244 248 251 257 266 271 275 284 295 300 304 306 306 307 314 322 328 332 336
227 213 224 225 216 213 213 213 212 216 211 220 229 235 226 222 222 226 219 217 221 236 238 245 248 253 260 266 273 275 277 283 289 297 300 304 304 303 308 314 316 319 322
223 219 226 226 223 215 214 212 215 218 214 218 227 231 225 223 220 221 222 221 223 233 238 242 252 256 263 270 272 273 276 282 290 294 293 296 302 303 302 304 305 307 309
222 219 217 222 230 216 213 213 217 220 220 220 226 228 225 224 225 229 230 224 229 235 240 243 249 258 264 272 278 278 282 287 290 294 297 298 298 299 299 298 296 293 294
223 227 224 222 228 225 218 216 217 220 221 224 229 230 229 232 235 241 238 234 237 242 245 251 259 266 271 274 279 282 283 287 292 295 299 301 300 298 296 296 292 287 283
220 225 223 238 235 235 230 219 217 223 226 229 231 234 235 236 238 244 248 243 243 249 255 258 259 263 272 280 284 286 287 286 291 305 309 315 310 305 310 301 295 289 286
214 217 216 227 230 238 239 240 238 241 240 243 243 243 245 244 238 241 245 246 246 249 253 257 262 268 273 278 278 285 292 294 300 296 294 302 298 298 300 291 283 280 273
235 228 228 226 228 230 238 237 241 244 246 239 242 247 250 255 257 256 253 255 256 253 254 258 261 265 273 276 277 275 273 276 283 283 288 294 287 293 295 288 294 286 283
250 244 237 238 236 233 233 233 235 242 247 251 257 262 260 261 264 266 263 258 262 264 266 268 272 272 270 271 271 272 274 276 276 288 286 278 287 295 293 291 293 293 291
266 249 243 236 236 237 234 234 235 238 246 253 258 261 261 262 262 263 263 264 265 266 268 269 269 269 269 268 267 268 271 275 271 274 281 286 294 289 283 292 296 294 298
245 235 234 234 234 233 232 233 237 241 248 254 257 258 259 259 261 261 260 260 260 261 262 262 261 263 266 266 265 267 271 272 272 273 284 290 289 288 288 288 294 292 298
Wind_Speed_850mb
62 58 52 48 45 41 36 32 27 23 19 14 11 12 15 19 21 21 24 25 23 18 15 13 12 10 8 10 13 15 17 22 25 26 26 26 22 19 18 23 26 27 26
68 63 56 50 46 42 36 30 25 22 18 12 12 14 17 23 27 30 29 27 25 21 17 13 11 11 13 16 18 21 25 27 30 31 29 27 24 24 24 25 26 26 27
68 65 58 53 47 43 37 31 26 22 17 13 13 17 21 24 29 34 33 30 25 22 20 18 17 18 20 23 27 30 30 32 33 34 34 34 31 31 32 32 30 24 27
65 66 59 54 49 44 38 32 27 22 18 16 16 18 22 25 28 32 33 31 28 25 24 24 25 27 28 29 30 30 30 30 30 33 36 37 38 30 29 30 32 29 27
66 65 57 53 49 43 38 33 29 23 19 17 17 16 22 24 26 26 27 27 27 28 28 30 31 30 30 29 29 31 30 29 37 38 29 25 23 21 15 16 25 27 26
67 62 54 52 48 43 36 32 29 23 21 19 13 16 19 23 28 21 22 22 24 28 30 30 30 31 30 30 29 28 28 27 26 26 23 17 17 19 16 14 11 19 19
66 62 56 51 47 43 37 32 27 25 20 16 20 24 24 25 28 24 21 19 21 25 27 28 28 29 30 29 27 24 24 23 19 16 14 16 18 19 19 18 15 6 3
64 58 54 50 47 43 37 33 30 26 21 21 25 26 24 24 28 27 23 19 18 20 23 24 25 24 24 24 24 22 21 20 18 16 16 17 19 20 22 22 20 16 12
56 53 53 50 45 43 39 35 32 26 29 26 22 14 16 27 28 29 24 22 18 17 17 18 18 19 18 18 17 17 17 16 17 19 19 21 23 23 23 24 25 22 19
56 53 51 50 49 47 42 38 31 29 20 13 8 5 5 14 31 35 27 25 19 16 14 13 13 13 12 12 12 11 11 12 12 13 16 19 21 23 24 25 26 24 21
55 55 54 53 50 47 44 39 32 27 18 10 9 11 15 16 19 26 29 25 21 15 10 7 5 3 2 1 1 4 5 6 8 8 11 15 19 21 24 25 25 25 23
54 56 54 55 52 48 46 41 36 29 21 15 14 16 18 18 20 24 27 22 21 18 16 11 7 4 3 5 5 5 3 2 4 8 8 11 17 19 22 25 25 24 23
46 51 53 53 52 49 46 42 38 31 24 19 20 18 19 19 20 22 26 24 21 20 14 12 9 8 8 9 11 12 10 8 7 9 10 11 14 18 21 24 27 27 25
44 47 50 53 52 49 43 40 37 31 25 20 22 18 16 16 17 17 17 12 14 14 15 13 14 13 13 13 14 15 15 14 12 12 13 16 16 18 21 23 25 27 26
42 46 51 51 53 50 46 40 37 32 24 21 19 20 18 16 16 18 18 17 15 15 14 12 13 15 16 16 17 17 17 16 16 16 16 19 18 19 21 25 26 27 27
39 42 43 53 54 52 49 43 38 30 27 24 20 18 20 20 17 17 19 17 15 13 15 16 16 15 16 17 18 18 17 17 19 19 20 20 20 20 22 25 28 28 28
41 38 38 44 50 53 49 44 38 27 26 25 19 19 19 21 19 16 21 19 15 13 17 15 15 14 13 14 13 15 17 19 21 21 22 22 22 21 22 23 27 29 28
36 41 34 36 42 51 50 45 39 32 27 25 21 20 20 20 19 18 18 18 19 16 16 15 14 13 12 13 13 14 17 20 22 23 25 25 24 24 24 24 25 27 30
37 35 36 36 30 38 46 45 40 34 32 27 25 24 22 20 20 20 19 17 20 22 19 18 18 18 17 17 19 19 21 23 25 27 28 29 29 29 29 29 29 28 29
34 36 35 34 34 35 37 40 42 42 40 36 32 27 25 24 23 23 22 23 24 26 26 24 21 22 24 24 27 30 30 30 31 32 32 33 34 34 33 33 33 34 32
36 40 35 34 36 41 46 47 48 49 44 43 39 33 30 30 30 29 27 26 28 31 29 28 29 30 31 29 34 38 38 35 37 37 36 33 28 21 25 28 30 35 35
27 24 23 33 37 34 48 45 42 41 45 46 43 41 41 40 39 37 35 34 34 36 35 34 34 34 35 34 37 41 41 44 45 35 34 41 33 38 38 33 27 28 27
28 36 41 39 44 45 47 47 43 44 46 45 47 47 48 44 40 41 41 42 41 41 43 38 40 40 41 41 42 39 23 23 32 37 40 44 40 40 34 28 38 31 27
40 39 47 47 44 44 44 43 43 43 42 40 38 36 37 41 44 45 45 46 45 43 45 42 38 41 45 48 46 49 53 53 42 34 36 33 46 38 36 31 31 30 37
51 49 48 50 49 48 45 43 44 44 42 41 41 41 42 41 41 41 44 47 49 49 47 45 45 45 47 49 47 47 48 49 42 48 42 32 33 33 34 39 37 37 39
46 53 56 55 54 52 52 50 48 47 47 46 45 46 47 49 50 49 47 48 47 48 48 45 45 45 44 43 41 38 36 34 35 32 36 41 37 36 39 36 40 37 32
Wind_Direction_850mb
171 166 170 172 168 166 164 161 159 157 153 146 126 112 92 86 85 99 119 138 161 158 139 127 117 109 93 64 57 60 69 81 92 94 101 107 101 82 58 49 54 59 72
166 166 170 174 173 171 168 166 162 159 153 137 120 107 103 100 90 92 106 112 120 125 125 121 116 102 85 79 76 81 86 90 91 91 94 96 86 69 59 56 55 60 68
168 167 170 175 176 175 173 170 167 161 156 145 132 121 114 106 96 89 98 97 99 101 104 108 103 96 94 92 90 90 92 93 92 91 90 87 77 72 65 60 48 62 67
169 168 170 174 175 176 175 173 170 167 162 154 138 121 122 112 106 97 96 92 88 91 98 101 103 103 101 99 97 95 95 93 95 97 94 86 71 68 61 54 53 68 67
172 169 168 172 173 175 177 177 170 167 153 144 138 126 132 123 114 107 100 91 84 89 100 104 104 103 101 103 100 97 95 98 95 92 92 81 81 74 65 58 58 62 62
172 168 166 171 170 172 175 165 166 163 161 162 164 147 140 136 129 119 114 99 89 90 101 104 104 103 102 104 102 97 97 102 93 91 85 65 34 26 40 57 78 80 78
170 170 168 171 169 173 174 171 166 161 175 165 151 146 139 137 142 133 130 112 97 93 104 108 107 103 101 100 100 99 101 102 98 84 61 43 41 38 41 42 48 79 158
170 170 171 171 172 172 175 176 174 173 157 144 145 145 149 142 146 144 139 130 113 102 103 110 109 106 103 101 101 99 98 95 86 74 67 55 45 40 38 37 35 35 32
174 171 175 173 176 176 178 180 183 176 167 166 158 140 155 151 154 154 146 144 134 120 112 114 121 118 114 110 109 102 89 83 76 70 61 50 41 34 33 31 30 28 23
179 174 177 178 179 180 181 184 186 187 173 188 195 157 187 184 165 162 160 153 155 147 140 130 136 148 144 133 121 110 93 85 77 65 49 38 37 31 28 26 25 23 20
181 181 182 183 184 184 183 183 185 186 184 193 196 192 175 173 168 174 174 164 165 164 153 146 129 125 159 156 93 77 79 80 68 49 33 24 28 29 26 20 19 17 14
187 188 188 187 190 190 187 188 187 187 190 188 191 186 182 176 169 172 181 181 174 181 183 186 191 196 233 242 236 240 259 341 11 9 360 2 8 15 17 16 13 12 10
190 194 192 195 193 196 195 192 192 192 195 192 194 195 192 185 178 182 188 190 189 188 195 206 217 238 259 266 261 262 269 279 297 329 338 338 343 352 359 3 5 3 3
200 200 199 200 197 201 202 201 201 198 196 199 202 202 203 198 196 194 196 200 202 206 212 225 226 235 255 271 270 268 273 280 284 303 319 327 323 330 341 347 353 356 356
208 208 203 206 205 204 206 208 207 206 203 203 206 208 208 202 206 211 214 217 219 222 226 233 237 239 246 261 270 269 272 282 293 297 306 313 316 316 324 332 340 343 347
223 205 211 212 212 210 209 211 212 215 211 213 220 224 220 215 219 218 217 221 229 239 241 245 244 248 251 257 266 271 275 284 295 300 304 306 306 307 314 322 328 332 336
227 213 224 225 216 213 213 213 212 216 211 220 229 235 226 222 222 226 219 217 221 236 238 245 248 253 260 266 273 275 277 283 289 297 300 304 304 303 308 314 316 319 322
223 219 226 226 223 215 214 212 215 218 214 218 227 231 225 223 220 221 222 221 223 233 238 242 252 256 263 270 272 273 276 282 290 294 293 296 302 303 302 304 305 307 309
222 219 217 222 230 216 213 213 217 220 220 220 226 228 225 224 225 229 230 224 229 235 240 243 249 258 264 272 278 278 282 287 290 294 297 298 298 299 299 298 296 293 294
223 227 224 222 228 225 218 216 217 220 221 224 229 230 229 232 235 241 238 234 237 242 245 251 259 266 271 274 279 282 283 287 292 295 299 301 300 298 296 296 292 287 283
220 225 223 238 235 235 230 219 217 223 226 229 231 234 235 236 238 244 248 243 243 249 255 258 259 263 272 280 284 286 287 286 291 305 309 315 310 305 310 301 295 289 286
214 217 216 227 230 238 239 240 238 241 240 243 243 243 245 244 238 241 245 246 246 249 253 257 262 268 273 278 278 285 292 294 300 296 294 302 298 298 300 291 283 280 273
235 228 228 226 228 230 238 237 241 244 246 239 242 247 250 255 257 256 253 255 256 253 254 258 261 265 273 276 277 275 273 276 283 283 288 294 287 293 295 288 294 286 283
250 244 237 238 236 233 233 233 235 242 247 251 257 262 260 261 264 266 263 258 262 264 266 268 272 272 270 271 271 272 274 276 276 288 286 278 287 295 293 291 293 293 291
266 249 243 236 236 237 234 234 235 238 246 253 258 261 261 262 262 263 263 264 265 266 268 269 269 269 269 268 267 268 271 275 271 274 281 286 294 289 283 292 296 294 298
245 235 234 234 234 233 232 233 237 241 248 254 257 258 259 259 261 261 260 260 260 261 262 262 261 263 266 266 265 267 271 272 272 273 284 290 289 288 288 288 294 292 298